Wind_Speed
18 18 19 24 24 22 21 20 21 21 23 24 24 24 23 23 23 23 22 20 18 18 19 20 20 20 21 19 16 18 18 18 18 18 17 16 16 15 14 14 15 16 16 17 18 18 18 18 18 18 18 18 17 17 17 18 18 17 17 17 16 17 17 16 16 16 17 17 18 18 18 17 17 17 15 15 16 17 15 14 15 15 16 17 17
20 19 19 23 25 23 22 21 21 22 23 24 25 24 23 22 21 20 19 18 18 19 20 21 20 20 22 18 17 20 19 18 19 19 17 16 16 15 14 16 18 18 18 19 20 19 19 20 19 19 19 18 18 18 18 19 18 18 17 17 17 17 17 17 17 17 18 18 19 19 18 17 16 16 15 15 15 16 15 13 14 14 15 16 16
21 20 19 23 25 24 23 22 21 22 23 24 25 23 21 20 19 18 17 18 18 19 21 20 20 22 22 19 19 21 19 18 18 19 18 17 15 14 15 17 19 19 19 20 20 21 20 20 20 20 20 19 19 19 19 19 18 18 17 17 17 18 18 18 19 20 19 19 19 18 18 17 16 15 15 14 13 13 12 12 13 14 15 16 17
21 20 19 23 25 24 24 23 22 22 23 23 23 22 20 19 18 18 18 18 18 20 20 19 21 22 21 19 20 21 18 17 17 18 18 17 16 14 17 18 20 20 20 20 21 21 21 21 21 20 20 19 19 19 18 18 18 18 17 17 16 17 17 18 20 20 18 18 17 17 16 16 16 15 15 14 13 13 13 14 15 16 17 17 18
19 20 19 22 23 23 24 23 24 23 22 22 22 20 20 19 18 18 18 18 17 19 18 18 21 21 21 20 20 21 19 18 17 18 18 17 16 15 16 17 20 21 21 21 21 20 20 20 20 19 19 18 18 18 17 17 17 16 16 16 15 15 16 17 17 18 17 15 13 12 12 13 14 14 14 13 14 14 15 17 18 18 18 18 18
19 19 19 20 19 21 23 23 24 23 23 22 21 20 20 20 19 19 18 17 16 17 17 17 20 19 20 20 19 21 21 19 17 18 18 17 16 15 16 17 18 20 20 20 20 19 19 19 18 18 18 17 17 17 16 16 16 15 15 14 14 13 13 15 15 16 15 12 10 9 10 11 11 13 12 12 14 15 15 16 16 17 17 17 18
19 19 19 19 18 20 23 23 23 23 23 22 21 21 21 20 19 18 17 16 15 16 17 17 18 18 19 19 19 19 20 20 19 19 18 17 17 14 15 16 17 18 19 18 18 17 17 17 16 16 16 15 16 16 16 16 16 15 14 13 12 11 11 12 12 13 13 10 9 9 11 11 12 13 13 13 14 15 15 15 15 16 16 16 16
18 18 18 18 18 20 23 23 23 23 22 23 22 22 20 19 18 18 18 17 16 17 17 18 18 19 19 18 19 18 19 20 19 19 17 17 17 15 15 15 16 16 17 16 16 16 15 15 14 15 14 14 14 15 16 15 15 14 13 12 11 10 10 11 12 14 13 9 10 10 11 12 13 13 12 13 13 14 13 13 14 15 15 14 14
18 18 18 17 17 21 24 22 22 22 22 22 22 20 19 19 18 17 17 17 17 17 18 18 18 19 18 18 18 18 19 20 19 18 17 17 17 16 15 15 15 16 16 14 15 14 13 14 13 14 13 13 13 13 14 13 13 12 12 12 11 11 14 14 14 13 12 11 11 12 12 12 12 12 11 11 12 12 11 11 13 14 14 14 13
18 17 17 16 17 22 23 22 22 22 22 21 20 19 18 19 18 17 16 16 18 17 18 18 18 18 18 18 18 17 19 19 18 17 17 17 17 17 16 14 14 15 14 12 13 14 13 14 14 14 13 13 13 12 12 11 11 11 12 12 13 15 18 18 15 12 12 13 13 13 14 13 13 13 12 11 11 11 11 12 13 15 15 14 14
17 17 16 16 19 23 23 22 22 22 21 20 19 19 19 18 18 18 16 17 18 17 17 18 17 18 18 18 17 17 18 19 17 16 17 17 17 17 16 14 13 13 11 11 14 14 14 15 15 15 14 14 13 12 11 10 10 11 11 12 15 19 20 17 14 13 14 14 14 15 14 14 15 14 12 13 13 13 14 14 15 15 15 15 14
17 16 15 17 19 23 23 22 22 21 20 20 19 20 19 19 19 19 18 18 18 17 17 17 16 16 17 17 16 17 18 19 17 16 17 18 17 17 16 13 12 11 10 13 15 14 14 15 15 15 15 14 14 12 10 9 9 10 11 13 15 19 19 16 13 13 14 15 15 15 15 15 15 14 13 13 14 14 14 15 15 15 14 14 13
16 16 17 18 18 22 23 21 21 21 20 19 19 20 20 19 19 20 19 20 19 19 19 18 18 17 17 16 16 17 18 19 17 16 16 17 17 16 15 13 11 10 11 14 14 14 14 14 15 15 14 14 13 12 10 9 8 9 11 13 16 20 18 15 13 14 14 14 15 15 15 15 14 13 13 13 13 12 13 13 13 13 12 11 12
16 16 17 19 18 21 22 21 21 21 20 19 19 19 20 20 20 20 20 21 20 20 21 20 19 19 17 17 17 18 18 16 16 16 14 15 16 14 13 11 11 11 13 14 13 13 13 13 14 14 13 13 12 11 10 9 8 9 10 13 18 20 16 13 13 14 14 14 14 14 15 14 13 12 12 12 11 11 11 11 11 11 11 10 11
16 17 18 19 19 20 20 20 20 20 20 19 19 19 20 20 20 21 21 21 20 20 21 21 20 19 17 16 17 16 15 14 13 13 12 13 14 13 12 12 12 12 13 13 12 13 13 12 13 13 12 11 11 11 10 9 9 9 10 13 17 17 13 11 12 13 13 13 13 13 13 13 12 12 12 11 10 11 10 10 10 10 10 10 12
15 16 17 18 20 19 18 18 19 20 20 19 19 19 20 20 20 21 21 21 20 19 20 21 21 19 17 15 15 14 12 12 11 11 12 13 14 13 13 12 13 13 13 11 11 11 12 12 12 12 11 10 10 10 9 9 9 10 10 13 15 14 13 11 10 11 12 12 12 13 13 13 12 12 11 10 10 10 10 10 9 10 10 10 12
15 16 16 17 19 19 18 16 18 18 18 19 19 18 19 20 20 20 20 21 20 19 19 20 21 19 17 15 15 14 12 12 11 10 11 12 13 14 14 12 13 14 12 10 10 10 10 11 12 12 11 10 9 9 9 10 10 11 10 12 16 16 14 11 10 10 11 11 12 12 12 12 12 11 11 10 10 10 10 10 10 10 10 11 12
14 16 16 18 18 18 18 17 17 17 17 17 17 17 19 19 19 19 19 20 20 20 19 19 20 18 17 16 16 15 12 11 10 10 10 10 11 12 13 12 13 14 13 11 9 9 10 10 11 11 10 9 8 8 9 10 11 11 12 14 17 18 15 10 10 11 11 11 11 11 12 12 11 11 11 11 10 10 10 10 10 10 11 12 11
14 15 16 18 19 18 17 17 17 18 17 16 15 16 18 19 19 18 18 20 20 20 19 18 18 17 16 16 17 15 13 10 9 9 10 9 10 10 11 12 12 14 14 11 9 9 9 9 11 11 11 9 8 8 8 10 11 12 14 15 16 17 13 9 9 10 10 10 11 11 12 12 11 11 11 10 10 10 10 10 10 10 11 11 11
14 15 16 16 18 19 18 16 17 17 17 16 15 15 16 18 18 17 17 19 20 19 19 18 17 15 15 17 17 15 12 10 9 9 8 8 10 9 10 11 12 14 14 13 11 9 8 9 10 11 11 10 9 9 8 10 11 12 14 15 15 14 9 7 8 8 9 10 11 12 12 12 11 11 10 10 10 10 10 10 10 11 10 10 10
13 14 15 14 14 17 17 16 16 16 16 16 16 15 15 16 15 15 16 17 18 19 18 16 14 13 15 18 16 14 12 11 11 10 8 8 9 9 9 10 12 15 15 14 12 10 9 9 11 12 12 10 9 9 8 8 10 12 13 13 13 9 6 7 7 8 9 10 10 12 12 11 10 10 9 9 10 9 9 10 10 10 9 10 10
12 12 12 13 13 15 16 15 15 16 15 15 16 16 14 15 14 14 14 13 15 16 15 13 12 13 15 17 15 13 12 11 11 10 9 9 9 9 9 10 13 15 15 14 13 11 9 10 11 12 12 11 10 9 8 7 8 11 12 12 9 5 6 6 7 8 8 9 10 12 13 11 10 9 9 9 9 9 9 9 9 9 9 9 9
12 12 12 14 14 13 13 13 14 16 15 14 15 16 16 16 15 14 14 13 13 14 14 13 13 14 15 16 14 13 12 10 11 10 10 10 9 9 8 10 13 15 16 14 14 12 11 11 12 13 12 10 9 8 8 6 7 9 9 7 5 5 6 6 7 7 8 9 10 11 11 10 9 9 9 9 9 9 9 9 9 8 9 9 9
11 12 12 14 14 13 13 13 14 16 15 13 14 15 16 16 13 13 15 14 14 14 14 13 13 13 13 13 12 12 11 10 11 11 10 10 10 9 8 9 12 14 15 13 13 12 11 12 13 13 12 9 7 7 8 7 6 6 4 4 5 6 6 6 6 7 8 9 9 10 9 9 9 9 8 9 9 8 8 8 8 8 9 9 9
9 10 11 12 13 13 13 13 13 15 14 12 12 13 14 13 12 12 12 13 12 12 12 11 11 11 11 11 10 9 8 9 11 10 9 9 10 10 9 10 11 12 13 11 11 12 12 13 14 13 10 7 6 6 6 7 7 5 4 5 6 6 5 6 6 7 8 7 9 9 9 9 8 8 8 9 8 8 8 8 8 8 9 9 9
8 8 9 10 11 12 12 12 12 13 12 10 10 11 12 11 10 11 11 12 11 10 10 10 10 11 10 8 7 7 7 7 9 9 8 7 8 9 9 11 11 12 11 10 10 11 11 12 13 12 9 7 7 6 6 7 7 6 5 5 5 6 6 6 6 6 7 7 8 8 8 8 7 7 7 8 8 8 7 8 8 7 8 8 8
7 7 8 9 10 11 11 11 11 11 9 8 8 9 10 9 9 10 10 11 11 10 10 9 9 10 9 8 7 7 7 8 9 10 9 7 7 7 7 9 10 10 10 9 10 11 11 11 12 11 9 8 7 6 6 7 6 6 5 6 6 6 6 6 6 6 6 6 6 6 7 7 7 7 7 7 7 7 7 7 8 7 8 8 7
7 7 7 8 9 9 10 10 9 8 8 8 8 8 9 8 8 9 9 10 11 10 9 9 9 10 9 8 8 8 8 9 10 10 8 8 7 6 6 7 8 9 10 9 10 11 11 10 11 10 9 8 7 7 7 7 6 6 6 6 6 6 6 5 5 5 5 5 5 5 6 6 6 8 7 7 7 7 8 8 7 7 8 7 7
6 7 7 7 8 8 9 9 8 8 8 8 8 8 9 9 8 8 8 9 10 9 9 9 9 9 9 9 9 8 9 9 9 9 8 8 7 6 6 6 7 8 9 9 10 12 11 10 10 10 9 8 8 8 7 7 7 6 6 7 7 6 6 5 5 5 5 5 4 4 7 7 7 7 5 5 7 8 8 8 7 7 7 7 7
5 6 6 5 6 7 8 8 8 8 7 8 8 7 8 9 8 8 8 9 9 8 9 9 8 8 8 9 9 8 9 9 9 10 9 8 7 6 6 7 8 8 9 10 10 12 12 11 11 10 9 8 8 8 8 8 7 6 7 8 8 6 5 5 5 5 5 5 5 6 9 9 9 8 5 4 7 8 8 7 6 6 6 6 6
3 5 5 4 5 5 6 6 6 7 7 7 7 7 7 8 9 8 8 9 9 8 8 8 8 9 9 8 8 9 9 10 10 10 9 8 7 7 7 8 9 9 10 10 11 12 12 13 12 11 10 9 9 9 8 8 7 7 7 7 7 6 5 5 5 5 5 5 6 7 8 9 8 8 6 5 6 7 6 6 6 5 5 6 6
2 3 3 3 4 4 4 4 5 6 7 6 7 7 7 8 8 8 8 8 8 7 7 7 8 8 8 8 9 9 9 9 9 9 8 9 8 8 8 8 8 9 10 10 11 11 12 13 12 12 12 10 10 10 9 8 8 7 7 7 7 6 6 5 6 5 5 6 6 7 6 7 7 7 7 6 5 6 6 6 6 5 4 5 6
3 3 4 4 4 3 4 4 4 6 6 7 7 7 7 7 7 7 7 7 6 6 6 7 7 8 8 8 9 9 9 9 9 9 9 9 9 8 8 8 8 8 9 11 12 11 12 13 14 14 13 12 12 14 12 9 9 8 7 7 7 7 6 6 6 6 6 6 6 7 7 7 8 8 8 6 5 4 5 6 7 7 6 5 5
6 5 5 5 4 4 4 4 4 5 6 7 7 6 7 6 6 6 6 6 5 5 6 6 6 7 7 8 9 10 10 9 9 10 10 9 9 9 9 9 8 8 9 11 12 12 12 13 14 14 14 14 14 15 14 12 10 8 8 7 7 7 6 6 6 6 6 6 6 7 7 7 7 8 7 6 6 3 2 4 7 9 8 7 6
6 6 6 5 5 4 4 3 4 5 6 6 6 6 6 6 6 6 6 5 5 5 6 6 6 7 7 8 9 10 11 10 9 10 11 10 9 9 10 10 9 9 9 11 12 13 13 13 14 14 14 14 15 15 14 13 11 9 8 8 7 6 6 6 7 7 6 6 7 7 7 7 7 7 7 6 6 4 1 2 4 7 7 7 8
6 7 7 6 6 5 4 4 4 4 5 6 6 6 6 6 6 6 6 5 6 6 6 7 6 6 6 8 9 10 10 9 9 10 11 11 10 10 10 10 10 10 10 11 12 13 14 14 15 15 15 14 13 14 13 12 11 11 9 8 8 7 7 6 7 7 6 7 7 7 7 7 7 8 7 5 5 4 2 2 3 5 6 7 9
8 8 8 7 6 5 4 4 3 4 5 6 6 7 7 7 6 6 5 5 6 6 7 8 7 6 7 8 9 10 9 9 10 11 11 10 10 10 11 11 11 11 11 11 13 13 14 14 14 15 14 13 13 13 12 11 11 11 10 10 9 8 6 6 6 6 6 7 7 8 7 7 7 7 6 5 5 4 3 3 3 4 5 7 9
9 8 7 6 5 4 3 4 4 4 5 6 7 7 7 7 7 7 6 6 5 4 6 8 7 6 7 9 10 10 9 9 10 11 11 11 10 10 11 12 12 12 12 12 12 12 13 14 14 14 13 13 14 13 12 11 11 11 11 10 9 7 6 6 7 6 6 7 8 8 7 6 6 6 6 5 5 4 4 4 4 4 5 5 8
7 7 6 5 4 3 3 4 4 5 6 7 8 8 8 8 7 7 7 7 6 6 9 11 10 9 10 12 13 12 11 9 11 13 14 13 12 12 13 15 15 14 13 12 12 12 13 14 14 14 14 13 13 13 12 11 10 10 10 10 9 7 7 7 8 7 7 8 8 8 7 7 6 6 6 5 5 4 4 4 4 4 5 4 5
6 7 7 5 5 4 4 3 3 5 6 7 8 7 8 8 8 8 8 8 8 11 14 15 13 11 11 14 14 15 14 13 16 16 15 15 15 16 17 17 17 17 17 16 14 14 15 15 15 15 14 13 13 12 12 11 10 9 9 9 8 8 8 9 9 9 9 8 8 8 8 7 7 7 6 5 5 3 3 4 4 5 5 4 4
7 7 8 7 7 6 5 4 3 3 4 6 7 7 8 8 8 8 8 8 9 11 14 15 12 10 11 14 16 17 17 18 19 17 15 15 16 17 18 17 17 18 19 20 18 17 17 15 15 17 15 13 13 12 12 12 11 9 8 8 8 9 9 10 12 11 10 9 9 9 8 8 7 7 6 5 5 4 4 4 4 5 5 5 5
9 8 8 7 7 5 5 5 5 5 4 5 6 7 8 8 8 8 7 8 10 11 12 13 11 10 11 13 15 18 19 18 18 18 17 16 17 18 18 17 18 17 18 20 20 19 19 16 15 17 17 14 12 13 14 13 12 10 9 7 7 8 9 10 13 13 12 11 10 9 9 9 8 7 7 6 5 5 5 4 4 4 5 5 5
10 9 7 7 6 4 3 3 4 5 5 4 4 5 8 9 8 8 8 9 11 12 13 12 11 11 12 12 14 17 18 17 16 17 16 16 16 18 18 19 19 17 17 18 20 20 19 18 18 18 17 14 11 13 16 15 12 11 11 8 5 7 8 10 13 14 13 12 11 10 10 10 9 8 7 7 6 6 5 5 4 5 5 6 6
13 11 10 9 7 5 3 2 2 4 5 5 3 3 6 7 7 8 9 10 11 11 12 12 10 11 11 11 13 15 15 15 15 16 15 14 14 15 16 19 19 18 17 19 21 21 19 20 21 20 19 16 12 13 17 18 14 11 9 5 3 4 7 9 12 13 13 13 13 12 10 11 11 10 8 8 7 6 5 5 5 5 6 6 7
13 12 11 11 10 9 8 5 3 1 3 3 3 3 4 6 8 9 9 10 11 10 11 12 11 11 10 11 13 14 14 14 14 14 14 13 13 13 15 18 19 18 18 20 23 22 20 21 21 21 21 19 15 13 15 19 18 14 10 4 2 3 6 8 11 11 14 14 13 13 12 11 12 10 9 9 8 6 6 7 6 6 7 7 7
14 12 11 10 9 9 9 8 6 4 2 3 5 5 5 7 8 9 8 9 10 9 10 10 11 12 11 11 13 13 14 14 13 13 14 13 11 12 13 16 17 16 16 18 21 23 22 22 23 23 23 20 17 14 15 18 19 17 16 11 7 5 4 8 9 6 11 13 12 13 14 13 12 11 10 10 9 8 7 7 7 7 7 7 7
15 13 12 11 10 10 8 7 6 5 4 3 4 6 5 6 7 9 9 8 9 9 9 9 10 12 11 11 12 13 12 13 13 12 13 14 13 12 13 14 15 15 15 15 18 23 24 23 23 23 21 19 18 17 16 17 19 20 20 18 14 9 5 7 8 5 8 10 12 13 14 15 14 13 12 11 10 8 7 8 8 8 8 8 7
15 15 14 13 13 12 11 9 7 6 5 4 4 6 7 8 8 9 10 10 10 10 10 10 11 10 10 10 10 11 10 11 12 13 14 15 15 14 13 13 14 14 14 14 16 22 25 24 21 20 20 21 21 21 20 19 19 20 21 21 20 14 9 9 9 7 7 7 9 11 14 16 14 14 12 11 11 10 8 8 8 9 9 8 8
16 16 14 13 13 13 13 12 11 8 7 7 6 7 8 9 10 10 10 10 11 11 10 11 11 10 10 11 10 11 11 11 12 13 14 15 14 14 13 13 14 14 13 13 14 17 23 24 20 19 21 21 21 21 21 21 20 19 19 20 21 16 12 13 13 11 8 6 6 8 13 13 11 14 15 11 11 11 9 9 10 9 9 9 8
16 15 14 14 14 13 14 14 13 11 10 10 9 8 8 8 9 10 11 11 10 11 11 12 13 11 11 11 10 11 11 11 12 13 13 14 14 14 13 14 15 14 14 14 14 14 18 19 18 19 19 19 20 19 18 19 19 20 20 18 16 13 11 14 16 15 12 10 9 9 13 14 10 12 15 13 13 12 11 11 10 10 10 9 8
16 16 16 15 14 14 14 14 14 13 12 12 10 9 9 9 9 10 12 12 11 11 11 13 13 11 11 11 11 11 11 11 12 13 13 14 15 15 14 15 15 15 15 15 15 15 15 15 16 18 18 17 18 17 16 17 18 20 21 17 14 14 14 13 12 13 12 11 9 9 12 15 13 14 16 15 14 13 12 11 11 11 10 9 8
Wind_Direction
154 154 152 166 164 161 162 158 158 156 155 154 154 152 151 148 147 147 147 146 142 137 135 135 131 128 120 118 126 124 118 116 118 118 119 120 117 114 115 117 115 112 112 112 110 110 109 109 107 107 108 105 105 102 99 99 100 99 99 101 103 102 102 102 102 100 97 96 95 95 94 92 92 90 88 90 91 88 82 77 75 73 71 69 69
154 152 152 165 164 163 163 162 160 157 156 153 152 150 148 145 144 144 143 143 138 137 138 136 131 127 120 122 125 118 117 119 121 121 121 119 115 113 113 113 112 111 111 111 110 109 108 108 106 106 105 104 104 102 100 99 99 100 101 104 107 106 104 103 100 98 99 98 98 98 95 89 87 87 87 88 92 96 94 88 82 76 73 72 73
149 151 151 164 165 163 164 165 162 158 156 153 152 148 146 143 143 143 141 141 138 140 140 135 131 127 121 122 122 119 120 118 118 120 119 117 116 113 112 112 113 112 111 111 110 109 108 107 106 106 104 103 103 101 101 100 100 101 100 102 105 106 104 103 101 101 100 98 95 93 91 87 83 80 79 79 81 86 88 88 86 81 80 77 72
148 151 150 163 165 164 166 167 165 161 157 153 151 148 145 142 143 143 142 141 139 141 139 135 133 129 125 126 125 123 122 117 115 118 119 119 118 113 111 112 112 111 111 111 110 109 107 106 105 104 103 102 102 102 102 102 103 103 103 103 103 106 105 105 104 100 94 88 86 88 87 82 76 72 72 72 74 77 77 79 83 84 84 80 76
148 151 150 157 161 165 168 169 167 163 158 153 149 145 142 141 142 142 141 139 136 138 137 135 134 130 127 129 128 126 126 122 117 119 121 121 120 114 109 109 110 111 111 111 110 109 108 107 106 105 105 104 104 105 105 106 107 108 108 108 108 109 110 111 109 100 90 83 82 86 84 79 73 69 73 77 79 81 80 80 83 84 84 82 83
146 148 149 152 155 163 168 170 168 164 160 154 147 142 140 141 140 140 138 134 132 135 133 133 134 130 128 128 127 127 128 127 122 122 124 123 121 117 113 112 112 111 112 112 110 109 108 107 106 106 107 108 109 108 108 110 110 109 108 108 109 111 114 115 114 103 90 85 84 85 82 82 80 76 82 87 88 87 84 83 87 88 86 84 81
144 147 150 152 152 162 168 169 167 164 160 155 149 143 142 141 139 139 136 132 133 134 132 133 133 132 130 129 128 128 130 131 128 127 127 125 125 121 117 115 114 112 111 109 108 108 107 106 107 107 108 109 109 107 109 112 111 109 107 106 108 112 117 116 116 104 87 83 84 84 83 86 89 88 89 88 89 89 89 88 89 90 90 88 83
145 149 153 151 153 164 167 166 164 162 158 155 151 148 146 141 138 138 136 135 136 135 134 134 135 134 132 131 131 130 133 136 133 132 131 129 128 123 118 117 115 113 111 108 107 108 108 108 109 108 109 111 108 109 111 113 112 108 104 100 102 110 114 111 107 97 88 87 87 87 88 92 95 95 92 87 87 88 91 89 85 88 90 89 85
148 151 153 150 154 163 164 163 161 157 155 153 152 150 145 139 136 136 136 138 138 136 136 136 136 136 135 132 131 129 134 139 136 137 137 134 132 128 126 122 120 119 116 115 112 107 107 109 108 109 111 112 111 114 116 114 111 106 101 97 98 107 109 102 94 90 90 92 91 91 92 95 96 95 94 89 89 91 92 89 82 84 89 89 88
148 150 152 149 153 161 162 161 157 155 154 152 151 147 140 138 137 137 138 139 138 136 137 137 137 138 137 135 134 135 141 145 141 141 142 142 140 136 133 126 122 123 120 121 120 111 106 110 110 109 109 111 113 115 117 114 109 104 101 98 101 106 104 97 91 91 95 95 93 91 92 93 94 95 95 94 99 105 102 97 90 87 87 88 89
148 149 151 149 155 162 161 159 157 155 154 151 148 144 140 140 142 141 140 140 139 137 137 136 136 136 134 134 136 140 150 151 143 143 145 147 146 140 137 134 131 126 123 126 125 115 110 114 113 109 105 107 110 114 117 113 108 104 101 100 106 108 102 96 97 99 98 97 95 94 94 94 95 98 99 98 102 103 98 93 89 87 85 86 88
150 148 148 150 158 161 159 159 157 156 155 153 150 148 145 144 145 144 143 142 141 141 138 138 138 136 132 132 131 133 147 152 147 145 146 150 150 144 144 143 139 133 135 133 122 112 112 115 114 108 105 105 106 110 113 110 106 103 104 105 110 108 100 98 103 103 100 98 96 97 98 97 99 101 100 99 99 95 93 91 90 88 88 89 87
152 148 146 147 154 159 160 160 160 160 159 156 154 152 149 147 148 147 146 146 145 145 143 143 141 137 137 138 137 136 145 153 154 154 152 155 155 151 151 146 140 141 142 133 118 109 110 112 113 109 105 104 102 104 107 107 105 106 108 109 112 107 100 102 105 103 101 100 99 99 100 100 102 102 99 98 96 95 94 94 94 91 89 87 82
152 146 143 142 150 159 161 161 163 164 161 159 156 155 152 150 150 150 150 151 150 148 147 146 143 141 146 148 148 148 150 152 153 158 158 159 161 155 152 147 143 147 144 131 116 108 106 108 112 109 105 103 101 102 105 107 108 111 111 113 113 105 101 105 106 104 102 101 101 101 101 103 105 101 102 102 97 97 97 96 95 91 88 82 78
151 145 142 143 151 158 161 162 165 164 162 160 156 156 155 153 152 152 153 154 154 151 150 149 146 145 152 154 151 150 150 149 150 157 158 159 162 157 152 151 150 151 146 132 117 109 105 109 113 111 108 104 103 103 106 108 109 113 115 118 115 106 104 107 106 105 102 102 102 103 103 106 109 104 106 107 102 101 99 98 94 89 85 80 80
148 145 144 145 149 155 161 164 166 165 163 159 157 158 157 157 156 155 155 156 157 154 153 152 149 150 155 155 153 151 147 149 149 153 160 163 167 163 156 154 155 153 148 138 124 113 109 113 117 117 113 108 106 107 107 106 110 115 117 124 122 113 111 110 108 106 103 104 104 104 104 107 111 109 110 108 105 103 100 99 95 90 87 84 84
144 144 145 146 148 155 160 163 168 167 163 160 160 161 160 161 159 159 159 158 160 157 156 155 154 155 158 156 157 156 149 149 147 146 152 160 165 164 159 158 157 154 152 147 133 120 116 119 123 123 120 113 109 108 106 106 111 115 118 127 127 118 111 108 106 106 104 104 104 105 107 111 112 110 110 107 106 105 104 103 98 93 92 92 90
143 144 148 151 151 155 158 161 167 165 163 163 162 164 163 162 161 161 161 163 163 160 159 157 159 162 161 158 160 158 150 148 149 147 147 153 159 158 160 161 160 157 157 155 144 129 123 126 130 130 127 119 111 107 107 108 110 114 117 125 126 114 105 102 103 105 104 103 103 104 109 116 115 111 109 107 108 106 104 101 98 97 96 96 95
148 147 152 158 158 156 157 160 163 164 163 161 163 166 167 164 163 161 162 165 166 164 163 161 164 167 164 161 161 155 149 152 153 153 154 156 156 157 163 163 163 162 160 159 154 138 130 134 137 137 133 125 115 110 108 108 110 112 116 122 115 100 94 97 102 103 101 99 101 105 112 118 115 113 112 110 109 107 106 104 102 101 97 96 97
151 152 156 162 163 159 158 162 164 165 163 160 162 166 169 167 164 163 163 165 167 167 167 166 168 169 166 165 163 154 150 154 153 154 158 157 153 161 170 166 166 165 161 159 156 146 139 142 146 145 139 131 120 112 109 110 112 113 118 117 96 81 88 100 101 99 97 99 102 108 114 116 116 115 115 114 114 113 112 107 104 103 101 99 99
155 157 160 161 166 164 160 165 167 167 164 163 162 163 169 166 163 166 164 165 168 170 169 167 167 168 169 170 168 162 160 158 155 156 159 163 163 169 174 169 167 167 163 157 154 150 147 151 154 150 144 137 122 112 111 113 113 116 119 103 79 77 102 102 99 98 98 102 104 114 118 116 117 117 115 113 112 112 108 105 106 107 106 104 104
160 163 162 163 170 170 166 168 170 169 168 165 163 163 165 162 162 164 163 164 164 167 167 161 162 167 171 175 175 173 171 166 162 159 157 163 170 169 168 170 169 168 164 157 153 150 154 161 159 154 151 139 122 116 117 118 118 120 111 87 78 101 108 100 101 98 99 103 109 125 130 122 119 119 116 111 111 112 109 108 108 109 107 105 105
163 163 165 169 172 174 175 174 173 173 171 168 165 163 162 163 165 164 165 167 162 165 168 166 170 172 175 180 182 177 173 173 168 162 159 159 169 170 164 169 171 171 166 159 154 153 159 163 162 160 154 138 127 131 130 129 128 121 104 85 104 119 105 102 98 95 97 101 113 129 131 124 120 119 117 115 115 115 114 114 111 109 109 109 107
166 163 169 175 173 173 177 178 177 175 172 171 167 164 165 165 166 166 168 171 171 174 176 176 178 179 181 187 190 178 172 180 171 165 166 160 167 170 163 165 170 173 166 158 155 156 161 164 165 162 156 147 146 149 139 138 140 133 121 113 123 117 107 101 92 93 95 101 116 122 121 120 119 119 118 118 118 117 115 115 116 116 113 112 108
165 166 172 176 177 175 178 178 178 178 175 172 169 165 164 165 169 170 170 173 178 182 181 182 183 184 190 199 199 180 176 186 173 168 172 164 164 165 162 158 160 167 164 163 164 161 163 165 167 167 171 173 164 156 144 143 144 145 141 125 121 117 108 95 90 93 92 101 118 122 126 126 123 124 126 126 125 122 120 118 117 116 116 115 112
170 175 177 177 179 181 183 181 180 182 177 173 169 164 164 167 174 175 176 178 180 184 183 184 188 188 195 205 201 183 184 190 177 178 181 175 172 170 168 160 155 162 169 178 179 175 175 171 172 179 185 182 167 159 151 147 145 142 136 127 123 115 105 97 91 90 92 102 120 129 130 128 127 125 128 132 130 128 127 125 121 118 117 115 114
180 183 179 176 180 183 186 184 183 182 173 171 169 166 171 175 178 178 183 185 181 185 188 188 191 191 194 198 197 193 194 195 190 187 185 183 185 184 178 169 162 163 174 188 189 190 192 182 182 188 186 178 169 163 156 154 149 142 135 129 122 113 109 105 98 97 102 108 123 130 126 133 142 137 137 136 133 133 129 125 123 121 117 116 116
187 186 178 176 181 182 186 185 180 172 166 170 173 176 177 179 182 181 189 191 186 190 195 193 192 195 198 198 198 201 205 205 200 193 190 190 193 195 189 181 175 169 176 190 197 200 201 195 192 190 184 177 168 163 163 161 155 148 138 131 125 119 116 110 107 108 111 115 126 138 141 146 142 134 138 143 144 139 134 132 129 122 119 121 121
187 186 181 177 179 179 185 183 171 167 169 171 180 189 182 182 190 189 195 194 191 196 198 198 197 200 203 203 205 206 209 209 199 192 194 194 198 204 203 197 188 179 180 189 199 201 204 205 198 192 188 180 170 169 170 168 164 156 143 134 131 125 121 119 117 116 117 121 133 156 149 134 121 115 116 136 145 142 136 132 127 123 125 128 128
183 179 181 174 172 174 180 180 172 169 170 174 184 196 187 188 197 195 198 196 195 199 199 202 204 207 209 207 209 208 209 212 200 191 193 197 203 210 212 208 199 194 190 191 197 200 205 206 197 192 189 183 177 176 175 174 171 158 144 138 135 133 134 130 125 124 126 123 129 145 141 132 126 127 128 121 124 131 129 122 119 122 135 142 137
169 176 175 156 163 173 177 175 173 169 170 180 188 195 194 196 202 201 203 202 200 198 201 208 212 216 215 209 211 209 209 216 208 196 196 201 207 213 218 216 209 206 203 199 198 199 204 204 197 191 190 188 182 178 178 176 173 164 154 146 141 146 149 137 132 134 135 131 131 142 146 141 136 139 151 138 113 118 122 126 130 132 143 144 132
152 177 155 135 159 172 181 173 170 171 171 181 188 195 200 202 207 208 210 210 206 203 207 213 219 223 220 215 215 213 210 214 211 203 204 207 208 213 220 224 218 212 209 206 204 201 201 203 198 193 190 190 184 178 176 175 176 175 167 159 155 160 159 145 144 145 144 144 144 149 157 156 153 157 171 169 134 126 134 144 147 149 156 142 132
112 124 129 134 156 157 176 183 178 178 176 185 194 201 204 207 212 216 220 221 217 216 218 218 222 227 225 221 220 220 218 214 211 208 211 212 211 213 220 226 223 217 212 208 208 204 201 201 200 198 192 190 188 182 176 174 180 182 175 168 169 170 163 156 155 154 154 156 159 161 163 166 167 169 177 178 160 147 147 158 162 161 166 158 151
82 108 136 142 151 149 164 186 194 190 189 195 200 206 209 213 219 224 228 230 234 236 234 230 229 232 232 230 229 228 228 224 215 209 214 217 215 215 218 224 224 221 215 211 211 209 205 203 203 203 197 194 193 188 182 177 180 184 181 178 179 176 168 166 163 160 162 163 167 166 164 167 170 171 177 185 191 186 152 170 182 174 170 167 164
70 101 126 139 153 156 161 183 200 200 202 203 205 212 216 219 225 231 232 235 243 248 248 244 240 242 244 244 239 234 231 230 224 215 215 217 219 221 221 223 223 221 219 215 214 213 210 206 204 203 199 197 194 191 187 182 184 188 189 189 186 182 178 176 170 166 168 168 170 171 170 170 172 174 177 188 199 199 190 184 182 180 183 180 174
87 104 121 141 157 163 169 177 189 201 210 213 216 222 225 227 229 233 234 233 238 246 252 251 251 253 256 256 250 243 238 233 231 229 223 218 219 224 224 225 223 220 222 220 217 215 212 208 206 203 200 196 191 188 187 185 189 191 194 197 192 192 188 180 178 172 168 171 171 171 174 174 176 180 178 188 198 194 211 191 158 167 182 190 186
111 116 130 143 151 153 153 159 178 205 220 228 232 234 235 235 236 237 235 231 234 244 253 254 253 253 259 266 265 257 248 241 237 236 234 227 223 227 227 227 226 224 225 223 222 219 211 206 206 204 200 195 193 190 186 187 188 189 196 200 196 197 190 179 184 179 173 177 174 172 178 180 181 183 182 193 205 196 200 193 172 167 168 183 192
118 120 128 134 142 140 145 161 174 198 219 231 236 239 243 243 240 237 237 237 237 244 257 260 253 245 246 252 261 264 259 253 247 240 237 234 229 230 231 230 229 226 227 226 224 220 210 204 203 201 197 196 199 195 188 186 184 188 195 199 197 195 190 190 194 191 186 183 177 177 180 182 184 190 194 199 200 190 194 197 191 186 175 176 189
109 113 112 114 129 134 161 176 182 198 213 223 230 234 237 240 239 233 231 231 229 232 244 247 239 234 236 241 245 249 253 254 251 246 240 239 235 233 234 234 233 229 227 226 224 219 210 204 200 195 191 198 205 197 187 182 182 188 191 193 195 194 199 203 202 201 197 187 180 181 183 185 189 195 201 202 195 186 188 199 202 192 188 182 182
97 106 105 112 122 129 155 174 196 209 214 222 231 238 239 240 238 235 230 225 223 229 238 239 232 227 233 240 236 230 233 235 241 246 243 243 240 237 238 238 237 233 226 223 221 216 210 202 194 191 188 194 204 195 184 180 178 183 186 189 192 194 204 208 209 209 202 191 185 184 184 189 193 198 205 201 192 186 182 195 202 189 186 191 183
77 86 96 111 117 124 140 150 174 202 218 228 234 240 246 250 248 245 238 232 232 235 243 245 238 226 229 240 237 230 229 227 233 240 240 241 239 237 238 236 237 236 228 224 222 219 217 208 197 197 193 191 198 192 182 178 174 175 179 186 192 196 204 210 214 213 204 196 191 188 188 192 196 199 205 200 186 184 185 191 196 189 184 183 177
70 74 87 101 110 119 136 151 166 178 198 227 240 241 244 249 250 248 241 235 238 240 248 253 247 237 238 242 240 237 236 234 235 238 238 240 238 237 236 233 236 238 232 228 227 224 219 212 205 203 196 191 194 190 184 181 183 185 181 181 194 203 210 217 219 212 204 200 195 192 189 191 200 201 201 199 189 187 184 182 182 181 180 171 163
73 75 84 94 102 112 134 154 162 172 180 191 220 234 238 243 243 240 238 236 240 243 247 253 252 240 235 238 240 242 243 242 239 237 238 239 237 237 236 237 239 236 228 223 223 223 219 216 213 206 198 192 194 195 192 191 195 197 194 195 199 205 212 213 217 211 201 201 200 197 192 192 202 204 203 201 191 189 181 171 171 170 167 160 154
65 62 62 69 71 66 82 125 151 177 186 179 185 234 239 239 237 234 239 242 245 249 251 258 259 241 229 230 236 241 243 245 243 239 239 237 235 235 234 236 237 234 228 222 220 220 219 216 211 205 198 190 190 199 201 202 206 202 201 210 184 204 225 203 202 204 198 203 206 201 199 199 203 201 203 203 189 189 183 167 166 166 159 152 149
54 52 49 50 52 48 43 37 34 221 221 220 253 289 250 234 237 234 237 243 247 250 254 261 262 251 241 234 234 235 238 245 249 247 245 239 234 232 233 234 235 233 229 226 225 222 216 213 209 206 202 194 190 198 204 207 212 203 195 211 177 215 242 189 180 194 196 203 208 204 204 205 204 200 201 202 189 188 186 166 162 162 157 153 147
41 43 45 44 43 43 37 28 21 8 338 278 285 298 260 237 243 240 238 244 248 247 248 255 258 259 257 247 241 238 237 243 247 245 243 238 231 228 230 232 232 230 225 226 229 225 216 210 208 205 205 205 201 202 207 210 216 210 203 219 231 246 244 176 170 188 193 203 210 206 207 206 203 201 201 199 189 189 186 168 162 162 158 154 146
34 36 40 38 35 33 28 22 15 8 5 329 306 311 281 253 249 247 248 253 257 258 254 253 257 261 262 254 248 245 242 241 240 238 238 237 232 224 223 228 230 228 225 224 226 224 215 206 205 202 204 211 208 206 209 208 213 215 214 223 234 251 245 182 181 185 183 201 210 207 209 209 203 199 200 198 189 185 181 170 166 166 162 156 148
31 32 33 30 29 28 25 21 15 6 356 335 314 307 293 280 270 261 258 257 261 267 267 261 255 252 254 250 245 245 243 238 235 233 238 240 234 224 219 224 227 224 221 216 217 220 215 207 205 203 204 209 208 207 208 206 208 214 216 222 231 243 237 209 204 196 188 194 197 203 210 209 203 199 200 199 190 184 181 179 174 172 168 159 153
29 29 28 26 26 24 24 24 21 14 357 342 328 309 298 293 288 280 271 263 261 265 266 261 251 243 247 247 241 236 233 233 233 233 241 243 233 224 217 215 217 217 212 207 207 214 215 208 202 198 201 208 212 212 209 209 213 215 216 219 227 233 229 224 215 196 192 188 179 196 200 196 200 203 202 199 192 186 187 187 180 177 170 162 158
27 26 26 26 26 24 22 22 19 13 1 350 337 321 313 302 293 286 279 273 267 263 262 259 252 244 246 251 247 241 237 238 238 233 237 239 232 226 218 208 209 211 210 202 195 198 204 203 199 199 203 209 214 215 214 216 219 221 221 218 221 219 214 223 210 190 189 195 192 193 188 186 191 202 202 197 192 190 190 190 185 182 174 167 163
27 26 24 22 24 24 22 21 18 10 2 354 342 330 323 311 299 290 283 281 279 273 261 257 255 249 248 252 251 249 246 246 243 235 231 234 232 226 217 208 205 206 208 203 193 189 191 194 199 202 204 209 215 218 221 222 221 223 224 221 219 214 216 229 214 197 203 204 197 186 187 193 189 190 198 196 191 192 192 191 189 187 178 171 167
Height
795 797 800 800 803 804 806 807 809 809 810 811 812 813 814 816 817 818 819 819 819 820 820 820 821 822 823 824 824 824 825 825 826 827 828 828 828 829 828 828 827 827 826 826 827 827 827 828 828 829 829 830 830 831 831 831 832 832 832 832 832 832 833 833 833 833 833 833 833 833 834 834 833 834 834 835 835 835 836 837 836 835 835 835 834
795 798 800 801 803 805 807 808 809 810 811 812 813 815 816 817 818 820 820 821 821 821 822 822 823 823 824 825 826 826 827 827 827 828 829 830 830 830 829 829 828 828 828 828 828 828 829 829 830 830 831 831 832 833 833 833 833 833 833 833 833 834 834 834 834 834 834 834 834 834 835 835 835 836 836 836 836 837 837 837 837 836 836 836 835
796 799 801 802 804 806 807 808 809 810 811 812 814 815 817 818 819 821 821 822 822 822 823 823 824 825 826 827 827 828 828 829 829 830 831 832 832 832 831 830 830 829 829 829 829 829 830 830 831 831 832 833 833 834 834 835 835 835 834 834 834 835 835 835 836 836 836 836 836 835 836 836 837 837 837 837 838 838 838 838 837 837 837 837 836
797 799 802 803 805 807 808 809 810 811 812 813 815 816 817 819 820 822 822 823 823 824 824 825 826 826 827 828 829 829 830 830 831 831 832 834 834 834 833 832 831 831 831 831 831 831 831 832 832 833 833 834 835 835 836 836 836 836 836 836 836 836 836 837 837 837 837 837 837 837 837 838 838 839 839 839 839 839 839 839 838 838 838 837 837
798 800 803 804 806 808 808 809 810 811 812 814 815 817 818 820 821 823 824 824 825 825 826 827 827 828 829 829 830 830 831 832 832 833 834 835 836 835 834 834 833 832 832 832 832 833 833 833 834 834 835 835 836 837 837 837 837 837 837 837 837 837 838 838 838 838 839 838 838 839 839 840 840 841 841 841 841 841 841 840 840 839 839 838 838
799 801 804 806 808 808 809 810 811 812 813 815 816 817 819 821 822 824 825 825 826 827 828 828 829 829 830 830 831 831 832 833 834 835 835 836 837 837 836 836 835 834 834 834 834 835 835 835 835 835 836 836 837 837 838 838 839 838 838 838 838 838 839 839 840 840 840 840 840 840 841 841 842 843 843 843 843 843 842 842 841 841 840 840 839
800 802 805 806 808 809 810 811 812 813 814 816 817 819 820 822 823 825 826 827 828 828 829 830 830 831 831 832 832 833 833 834 835 836 837 838 838 838 837 837 837 836 836 836 836 837 837 837 837 837 837 837 838 838 839 839 840 839 839 839 839 840 840 840 840 841 841 841 841 841 842 843 844 844 845 845 844 844 844 843 842 842 841 841 840
801 803 805 807 809 809 811 812 813 815 816 817 818 820 821 823 824 825 826 827 829 829 830 831 831 832 832 832 833 834 834 835 836 837 838 838 839 839 839 839 839 838 838 838 838 839 839 839 839 838 838 839 839 839 840 840 841 841 841 840 840 840 841 841 841 842 841 842 843 843 843 844 845 846 846 846 846 845 845 844 843 843 842 842 842
802 804 806 808 809 810 812 813 815 816 817 819 820 822 823 824 825 826 827 828 829 830 831 831 832 833 833 833 834 835 835 836 837 838 839 839 840 840 841 840 840 840 840 839 839 840 840 840 840 840 840 840 840 841 841 841 841 841 841 841 841 841 842 842 842 843 843 844 844 845 845 845 846 847 847 847 847 847 846 846 845 844 843 843 843
802 804 807 808 810 811 813 814 816 817 818 820 821 823 824 825 826 827 828 829 830 831 832 832 833 833 834 834 835 836 836 837 838 839 839 840 841 841 842 841 841 841 841 840 840 841 841 841 841 841 841 841 841 842 842 842 842 842 842 842 842 843 843 843 844 845 846 846 846 846 846 847 847 848 849 849 848 848 847 847 846 846 845 844 844
803 805 807 809 811 812 813 815 816 818 819 821 822 823 825 825 826 827 828 829 830 831 832 833 834 834 835 835 836 836 837 838 839 839 840 841 841 842 842 842 842 842 842 842 842 842 842 842 842 842 842 842 843 843 843 844 843 843 843 843 843 844 844 844 846 847 847 847 847 847 848 848 849 850 850 850 850 849 848 848 847 847 846 846 845
804 806 808 810 812 813 815 816 817 819 820 821 822 823 825 825 827 828 829 830 831 832 833 834 835 835 835 836 837 837 838 839 839 840 841 841 842 842 842 843 843 843 843 843 843 843 844 844 844 844 844 844 844 844 844 845 845 844 844 844 845 845 845 845 847 848 848 848 849 849 850 850 851 851 851 851 850 850 849 849 848 848 847 847 846
805 807 808 810 813 815 816 817 818 819 820 821 822 823 824 826 827 828 830 831 831 832 833 834 835 836 836 837 837 838 839 840 840 841 841 842 842 843 843 844 844 845 845 844 844 845 845 845 845 845 845 845 845 845 845 845 846 845 845 845 846 845 845 847 848 848 849 849 850 850 851 851 852 852 852 852 851 851 851 850 850 849 848 848 848
806 807 809 811 814 816 816 818 819 820 821 822 823 824 825 826 827 829 830 831 832 832 833 834 835 836 837 838 838 839 840 840 841 841 842 843 843 844 844 845 845 846 846 846 846 846 846 846 846 846 846 846 846 845 845 846 846 846 846 847 847 846 847 849 849 849 850 850 851 851 852 852 853 853 853 853 852 852 852 851 851 850 849 849 849
806 808 810 812 814 817 818 819 820 821 822 822 824 825 826 827 828 829 830 831 832 833 834 835 836 837 838 839 839 840 840 841 841 842 843 843 843 844 845 845 846 846 847 847 847 847 847 847 848 847 847 847 847 846 846 846 846 847 847 847 847 847 848 850 850 850 850 851 851 852 853 853 853 854 854 853 853 853 853 852 852 851 851 850 850
807 809 811 812 814 817 819 820 821 822 823 824 825 825 827 827 828 830 831 832 833 834 835 836 837 838 839 839 840 841 841 842 842 843 843 844 844 845 845 846 846 847 847 848 848 848 848 848 849 848 848 848 848 848 847 847 847 847 848 848 848 848 849 851 851 851 851 851 852 853 853 854 854 854 854 854 854 853 853 853 853 852 852 852 852
808 810 812 814 815 817 819 821 822 823 824 825 826 827 828 828 829 831 832 833 834 835 836 837 838 839 839 840 841 842 842 843 843 844 844 844 845 845 846 847 847 847 848 848 849 849 849 849 849 850 850 849 849 849 848 848 848 848 848 849 849 849 850 851 852 852 852 852 853 853 854 854 855 855 855 855 855 854 854 854 854 853 853 853 853
809 811 813 815 816 818 819 821 823 824 826 827 828 828 829 830 831 831 833 834 835 836 837 838 839 839 840 841 841 842 843 843 844 844 845 845 845 846 847 847 847 848 848 849 850 850 850 850 851 851 851 851 851 850 850 849 849 849 849 849 850 850 850 852 853 852 853 853 853 854 854 854 855 855 856 855 855 855 855 855 855 854 854 854 854
810 812 813 815 816 818 820 821 823 824 826 827 829 830 830 831 831 832 833 835 836 837 838 839 840 840 841 841 842 842 843 843 844 845 845 846 847 847 847 848 848 848 849 850 851 851 852 852 852 852 852 852 852 852 851 850 850 850 850 851 851 850 851 853 854 854 854 854 854 855 855 855 855 856 856 856 856 856 856 856 856 855 855 855 855
811 813 814 816 816 818 820 822 823 824 826 827 829 830 831 832 833 833 834 836 837 838 839 840 840 841 841 842 842 842 843 843 844 845 846 847 847 848 848 849 849 849 850 851 852 852 853 853 853 853 853 853 853 853 852 852 851 851 851 852 852 851 853 855 855 855 855 855 855 855 856 856 857 857 857 857 857 857 857 856 856 856 856 856 856
811 813 814 816 817 818 820 822 823 825 826 827 829 830 832 833 834 835 836 837 838 839 840 840 841 841 842 842 842 843 843 844 844 845 846 847 848 848 849 849 850 850 851 852 853 853 854 854 854 854 854 855 854 854 854 854 853 852 853 853 852 854 856 856 856 856 856 856 857 856 857 857 858 858 858 858 858 858 857 857 857 857 857 857 857
811 812 814 816 817 818 820 821 823 825 826 827 828 829 831 833 835 836 837 838 839 840 840 841 841 842 842 842 843 844 844 844 844 845 846 847 848 848 849 850 850 851 851 852 853 854 854 855 855 855 855 856 855 856 856 855 855 854 854 854 855 857 857 857 857 857 857 858 858 857 858 858 859 859 859 859 859 859 858 858 858 858 858 858 858
810 812 814 815 816 818 819 821 822 824 826 827 828 829 831 833 835 837 838 839 839 840 840 841 841 842 842 842 843 844 844 844 844 845 846 847 848 848 849 850 851 851 852 852 853 854 855 855 855 856 856 856 857 857 857 857 856 856 855 856 857 858 858 858 858 858 858 859 858 858 858 859 859 859 859 859 860 860 859 859 859 859 859 859 859
810 812 814 815 816 818 819 821 823 824 825 827 828 830 831 833 835 837 838 839 839 840 840 841 841 842 842 842 843 843 844 844 844 845 846 847 847 848 849 850 851 852 853 853 854 855 855 856 856 856 857 858 858 859 858 858 858 857 857 858 858 858 859 859 859 859 859 859 859 859 859 860 860 860 860 860 861 860 860 860 860 860 860 860 860
810 812 814 815 816 818 820 821 823 823 825 827 829 830 831 833 835 837 837 838 839 840 840 841 841 841 841 841 842 843 843 843 844 846 847 848 848 848 849 850 851 852 853 854 855 855 856 856 856 857 858 859 859 859 859 859 858 859 859 859 859 859 860 860 860 860 860 860 859 859 860 860 861 861 861 861 861 861 861 861 861 861 861 861 861
811 813 814 815 817 819 820 821 823 824 826 828 830 831 831 833 835 836 837 837 839 839 840 841 841 841 841 841 841 842 842 842 844 846 847 848 848 849 849 850 851 852 853 855 855 855 856 856 857 857 858 858 859 859 859 859 859 859 859 860 860 860 860 860 861 861 861 861 860 860 861 861 861 862 862 862 862 862 862 862 862 862 861 861 861
812 813 815 817 818 819 821 822 823 825 827 829 831 832 832 834 835 835 836 836 838 839 840 840 841 841 841 842 842 842 842 843 844 845 846 847 848 849 849 850 851 852 853 855 855 855 856 856 857 857 857 858 858 859 859 859 859 860 860 860 860 860 860 861 861 861 862 862 861 861 861 862 862 862 863 862 862 862 862 862 862 862 862 862 862
813 814 816 817 819 820 821 822 824 826 828 829 831 832 833 834 834 835 835 836 837 839 839 840 840 841 842 842 842 843 843 843 844 845 846 847 848 849 849 850 850 851 853 854 854 855 855 855 856 857 857 857 858 859 859 860 860 860 860 860 860 860 861 861 861 862 862 863 863 862 862 862 863 863 863 863 863 863 862 863 863 863 863 863 863
813 815 817 818 820 821 822 824 825 827 828 830 831 831 833 834 834 835 835 836 837 838 839 840 840 841 842 843 843 844 844 843 843 844 846 847 848 849 849 849 850 851 852 853 854 854 855 855 856 856 857 857 858 859 859 860 860 860 860 860 861 861 861 861 861 862 862 863 863 863 862 863 863 863 864 863 863 863 863 863 863 863 864 864 864
814 816 818 820 821 822 823 825 826 828 829 830 831 832 833 834 834 834 835 835 837 838 839 840 841 841 842 843 843 844 844 843 843 845 846 847 848 848 848 849 849 850 851 852 853 854 854 855 855 856 856 857 857 858 859 859 859 860 860 860 861 861 861 861 862 862 862 863 863 863 863 863 863 864 864 864 863 863 863 863 864 864 864 864 864
816 818 819 821 822 823 825 826 827 829 830 831 832 833 833 833 834 834 835 836 837 838 838 840 841 841 842 843 843 843 843 843 843 845 846 846 847 848 848 848 848 849 850 850 852 853 853 854 854 855 856 856 857 858 858 859 859 859 860 860 861 861 861 861 861 862 862 863 863 864 863 863 863 864 864 864 864 864 864 864 864 865 864 865 865
818 820 821 822 824 825 826 828 829 830 831 832 832 833 833 833 834 834 835 836 837 837 838 840 840 841 842 842 843 843 843 843 843 844 845 846 847 847 847 847 847 848 849 850 850 851 852 853 854 854 855 856 856 857 857 858 859 859 859 860 860 860 861 860 861 861 862 862 863 864 864 864 863 863 864 864 864 864 864 865 865 865 865 865 865
819 821 822 823 824 826 827 827 829 830 831 832 832 832 833 833 834 835 835 835 836 837 838 839 840 841 842 842 842 843 843 844 844 844 845 846 846 846 847 847 847 847 848 849 849 850 852 852 853 853 854 855 855 855 856 857 858 858 859 859 859 860 860 860 860 861 861 862 862 863 863 864 864 863 864 864 864 864 865 865 865 865 865 865 866
820 821 823 824 825 825 826 827 828 829 830 831 832 832 833 833 834 834 835 835 836 837 838 839 840 841 841 842 842 842 843 844 844 844 845 845 845 846 846 846 846 847 847 848 848 849 850 851 851 852 853 853 854 854 855 856 857 858 858 859 859 859 859 859 859 860 860 861 861 862 863 863 864 864 864 864 864 864 864 865 865 865 865 865 866
821 822 823 823 824 825 826 827 828 829 830 831 832 832 833 833 833 834 834 835 836 837 838 838 839 840 841 842 842 842 843 844 844 844 844 844 845 845 845 845 846 846 847 847 847 848 849 850 850 851 852 852 853 853 854 855 856 857 857 858 858 858 858 859 859 859 860 860 861 861 862 862 863 864 863 863 863 863 864 864 864 865 865 865 866
822 821 822 822 823 823 825 826 827 829 830 831 832 832 832 832 833 833 834 835 836 836 837 838 839 840 841 842 842 842 843 844 844 843 843 842 843 845 844 844 845 845 846 846 846 847 848 848 849 850 851 851 852 852 853 854 855 856 856 857 857 857 858 858 858 859 859 860 860 861 861 862 862 863 863 863 862 862 863 863 864 864 864 865 865
820 821 821 822 823 823 824 825 827 829 830 831 831 832 832 832 832 833 834 835 835 836 836 837 838 840 841 842 842 842 843 843 843 843 842 841 842 843 844 844 844 844 845 845 845 846 846 847 848 848 849 850 851 851 852 853 854 855 855 856 856 857 857 858 858 858 859 859 859 860 861 861 862 862 862 862 861 861 862 863 863 863 864 864 864
819 821 821 822 823 825 825 825 826 828 829 831 831 831 832 832 832 833 833 834 835 836 836 836 838 839 840 840 841 841 842 843 842 842 841 840 841 842 842 842 842 843 843 844 844 845 845 846 846 847 848 849 849 850 851 852 853 854 854 855 856 856 857 857 858 858 858 858 859 859 860 861 861 862 862 862 862 862 862 862 862 863 863 863 864
820 821 822 822 823 824 825 824 824 826 829 830 830 831 831 831 832 832 832 833 833 834 833 833 834 836 836 836 837 838 840 841 841 840 840 840 839 840 840 840 840 841 842 842 843 844 844 844 845 845 846 848 849 849 850 851 852 853 854 854 855 855 856 857 857 857 857 858 858 858 859 860 861 861 862 862 862 862 862 862 862 862 863 863 863
821 821 821 821 822 823 824 824 824 826 828 829 829 830 830 831 831 831 831 831 831 831 829 828 830 832 832 831 831 833 834 836 836 835 836 837 837 837 837 838 838 838 839 840 841 842 842 842 843 844 845 847 848 848 849 850 851 852 853 853 854 854 855 856 856 856 857 857 857 857 858 859 860 860 861 861 861 861 861 862 862 863 863 863 863
820 821 821 821 822 823 824 825 825 827 828 828 829 829 829 830 830 830 830 830 830 829 828 827 829 832 832 830 828 829 830 831 832 832 833 833 833 834 834 835 835 836 837 838 839 840 840 840 841 843 844 846 847 847 848 849 850 851 852 852 853 853 853 854 855 855 855 855 856 856 857 858 858 859 860 860 860 860 861 861 861 862 862 862 862
820 820 821 821 822 822 823 824 825 826 827 827 828 828 828 828 828 828 828 828 828 827 827 827 829 832 833 831 829 829 829 830 830 830 831 831 830 831 831 832 833 833 834 836 837 838 838 840 841 842 843 844 845 846 846 847 848 849 850 852 852 852 852 853 853 853 854 854 854 855 855 856 857 858 858 859 859 860 860 860 861 861 862 862 862
821 821 821 821 822 822 823 824 825 826 826 826 826 826 826 826 826 826 826 826 825 825 825 826 828 830 830 830 829 829 828 828 828 828 828 828 828 828 828 828 829 830 832 833 834 836 837 838 840 841 842 843 844 844 845 845 845 847 848 850 850 850 850 850 851 851 852 852 853 853 853 854 855 856 857 858 858 859 859 860 860 860 861 862 862
823 823 823 822 822 823 823 824 825 825 826 825 825 825 825 825 824 824 824 824 824 824 824 825 826 827 828 829 829 828 827 827 827 827 826 825 825 825 825 825 825 827 829 830 831 833 835 836 838 839 840 841 842 843 843 843 843 844 846 847 848 849 847 846 848 850 850 851 851 851 851 852 853 855 856 856 857 858 859 859 859 860 860 861 862
825 825 824 824 824 824 824 824 824 824 825 825 824 824 824 823 823 822 823 823 823 824 824 825 825 826 827 827 827 826 826 826 826 826 825 824 824 823 822 822 823 824 825 827 828 830 832 834 835 837 839 839 840 841 842 842 841 841 843 845 848 849 845 841 844 848 848 849 850 850 850 851 852 853 854 855 856 857 858 858 859 859 860 860 861
827 827 826 826 825 825 825 825 824 824 824 824 824 823 823 822 822 821 822 822 823 823 824 824 824 825 825 826 826 825 824 824 824 825 824 823 822 821 820 821 821 822 823 824 825 827 829 831 832 835 837 837 838 839 840 840 840 840 841 843 845 845 841 838 842 845 846 848 848 849 849 850 851 852 853 854 854 856 857 857 858 859 859 860 861
828 828 827 827 826 826 825 825 824 824 823 823 822 822 821 821 820 820 821 822 822 822 822 823 823 823 823 824 824 823 823 822 822 822 822 821 820 819 819 820 821 821 821 822 822 824 826 828 830 832 834 835 836 837 838 839 839 839 839 840 841 841 839 838 839 841 844 847 847 848 848 849 850 851 852 852 853 855 856 857 857 858 859 860 861
829 828 827 827 826 826 825 825 824 824 823 822 821 821 821 820 819 819 819 820 820 820 820 820 821 820 820 820 820 820 820 820 820 819 819 820 819 818 818 819 820 820 820 820 820 821 823 826 828 830 832 833 833 834 835 836 836 836 836 837 838 840 840 839 839 840 841 843 845 846 847 848 849 850 850 851 852 854 855 856 857 858 859 859 860
830 829 828 827 827 825 825 824 823 823 822 822 821 820 820 819 819 818 818 818 818 818 818 818 819 818 818 818 817 817 817 817 817 816 817 818 819 817 816 817 818 819 819 818 818 818 821 824 825 828 830 831 832 832 832 833 834 833 834 835 837 839 839 839 840 840 839 840 843 844 845 846 848 848 849 850 851 853 854 855 856 857 858 859 860
831 830 829 828 828 826 826 825 823 823 822 821 821 820 820 819 819 818 817 816 816 816 816 816 816 816 816 817 816 815 815 815 815 814 815 816 818 817 815 815 816 818 818 817 817 817 819 822 823 826 828 829 830 830 830 831 831 832 832 834 835 836 837 837 838 838 839 840 840 840 841 844 845 847 848 849 850 851 853 854 855 855 857 858 859
832 831 830 829 828 827 826 825 824 823 822 821 821 820 820 819 818 817 816 815 814 814 814 813 814 814 814 814 815 814 814 814 814 813 813 814 815 815 814 814 814 816 817 816 816 816 818 820 822 825 827 827 827 828 828 829 830 831 832 832 833 833 834 835 834 834 835 835 835 837 839 840 842 845 847 848 848 850 851 852 853 854 855 857 858